STARLINK-37357, 69517

Orbit data source: Space-Track

STARLINK-37357, 69517 is a payload satellite owned by SpaceX/Seattle (US) in LEO that was launched on Fri, 12 Jun 2026 UTC via an FALCON 9 launch vehicle from the Air Force Eastern Test Range (AFETR). Payload-class satellites include a variety of spacecraft equipped with specific instruments for various scientific and technological missions. These include communications satellites like Starlink; space stations such as the ISS; scientific satellites like the Hubble; Earth observation satellites from companies like Planet Labs, Umbra, and HawkEye 360; GPS; miniature CubeSats for education and research; and military/defense satellites.

Not visible in the next 10 days
Identifier
69517, 2026-133K
Orbit
LEO
Country
Flag of USUS
Related business
Manufacturer
SpaceX/Seattle
Mission
Operational spacecraft
Bus & Motor
STARLINK V2MO, Unknown motor
Mass
575 kg wet, ~530 kg dry
Launch date (UTC)
2026-06-12 (1 week ago)
Launch vehicle
FALCON 9
Launch site
Air Force Eastern Test Range (AFETR)
Object type
Payload
Rocket body
Debris
Shape & HBR
Unknown
Radar Cross Section
RCS unknown

Expand to show TLE details & history
Last TLE update: 12 hours ago

TLE from 12 hours ago
0 STARLINK-37357
1 69517U 26133K   26171.41668980 -.01769598  95279-3 -32090-2 0  9990
2 69517  53.1582 306.1376 0000758  71.6438 319.8560 16.00949811  2383
Epoch: 2026-06-20T10:00Z
TLE epoch observation values (Epoch: 2026-06-20T10:00:01.998Z)
Latitude
24.78365°
Longitude
-92.38335°
Altitude
272.368 km
Speed
7.748 km/s
True Right ascension
21h 45m 01s
True Declination
24° 38' 37"
Sunlit
Object was in partial shadow at epoch
Visualization orbit readout
Latitude
Unknown
Longitude
Unknown
Altitude
Unknown
Speed
Unknown
Apparent Right ascension
Unknown
Apparent Declination
Unknown
Sunlit
N/A
Visualization observer readout
Local Sidereal Time
08:33:36
Azimuth
Unknown
Elevation
Unknown
Doppler factor
Unknown
Orbital elements
Apogee altitude
272.556 km
Perigee altitude
271.547 km
Semi-major axis
6,650.189 km
Eccentricity
0.00008
Inclination
53.1582°
RAAN
306.1376°
Arg. of periapsis
71.6438°
True anomaly
319.8504°
Mean anomaly
319.856°
Eccentric anomaly
319.8532°
Mean motion
4.00214 °/min
Orbital period
89.95 mins
BSTAR
-0.003209
Loading maneuver chart data...
Computing Atmospheric mass density...
Loading historical data...
Loading historical data...
Loading historical data...
Loading historical data...
Loading historical data...
Loading historical data...
Loading historical data...

Documentation

Showing up to 5 results
|